Regional Weather Roundup
Issued by NWS Sioux Falls, SD

Home | Current Version | Previous Version | Graphics & Text | Print | Product List | Glossary Off
Versions: 1 2 3 4 5 6 7 8 9 10 11 12 13 14 15 16 17 18 19 20 21 22 23 24 25 26 27 28 29 30 31 32 33 34 35 36 37 38 39 40 41 42 43 44 45 46 47 48 49 50

884
ASUS43 KFSD 250302
RWRFSD

WEATHER ROUNDUP FOR SE SOUTH DAKOTA/SW MINNESOTA/NW IOWA
NATIONAL WEATHER SERVICE SIOUX FALLS SD
900 PM CST FRI FEB 24 2017

NOTE: "FAIR" INDICATES FEW OR NO CLOUDS BELOW 12,000 FEET WITH NO
SIGNIFICANT WEATHER AND OR OBSTRUCTIONS TO VISIBILITY.


SDZ038>040-050-052>070-250400-
SOUTHEAST SOUTH DAKOTA

CITY           SKY/WX    TMP DP  RH WIND       PRES   REMARKS
BROOKINGS      CLOUDY    20  13  74 N17       30.02R WCI   5
CHAMBERLAIN    CLEAR     27  16  62 N9        30.12R WCI  18
HURON          CLEAR     22  16  78 N15       30.11R WCI   9
MADISON        FAIR      19  18  93 N18       30.03R WCI   4
MITCHELL       CLOUDY    25  17  72 N21       30.11R WCI  11
SIOUX FALLS    MOCLDY    22  14  71 N21       30.03R WCI   6
WINNER         FAIR      18  11  74 NW7       30.12R WCI   9
YANKTON        CLEAR     25  14  63 NW17      30.07R WCI  11
$$

MNZ071-072-080-081-089-090-097-098-250400-
SOUTHWEST MINNESOTA

CITY           SKY/WX    TMP DP  RH WIND       PRES   REMARKS
FAIRMONT       CLOUDY    20  14  77 NW20      29.90R WCI   4
JACKSON        CLEAR     21  14  73 NW28G35   29.91R WCI   3
LUVERNE        CLOUDY    21  12  68 N18G32    30.00R WCI   6
MARSHALL       CLOUDY    21  14  74 N25G35    30.00R WCI   4
MONTEVIDEO     CLEAR     19  14  79 N22G30    30.03R WCI   3
PIPESTONE      CLOUDY    21   9  58 N14G30    29.99R WCI   8
REDWOOD FALLS  CLOUDY    23  11  60 NW14G29   29.96R WCI  11
TRACY          CLEAR     22  16  77 NW24G31   29.98R WCI   5
WINDOM         CLEAR     21  14  73 NW28G33   29.92R WCI   3
WORTHINGTON    PTCLDY    19  13  77 NW28      29.94R WCI   1
$$

IAZ001>003-012>014-020>022-031-032-NEZ013-014-SDZ071-250400-
NORTHWEST IOWA

CITY           SKY/WX    TMP DP  RH WIND       PRES   REMARKS
CHEROKEE       MOCLDY    22  16  76 N18G24    29.97R WCI   8
DENISON        CLOUDY    21  16  79 N17       29.95R WCI   7
ESTHERVILLE    CLEAR     19  14  81 NW21      29.90R WCI   3
LE MARS        CLOUDY    25  16  68 N16       30.02R WCI  12
SHELDON        LGT SNOW  21  21 100 N20G29    29.96R WCI   6
SIOUX CITY     CLOUDY    25  16  68 NW18      30.01R WCI  11
SPENCER        CLOUDY    20  15  81 NW23G33   29.93R WCI   3
STORM LAKE     MOCLDY    21  16  79 NW22G32   29.94R WCI   5
$$

ABBREVIATIONS USED IN REMARKS
   TC - TEMPERATURE IN CELSIUS
  WCI - WIND CHILL INDEX
   HX - HEAT INDEX
  VSB - VISIBILITY





USA.gov is the U.S. government's official web portal to all federal, state and local government web resources and services.